This is the latest recevied weather packets stored in our database for station/object DG4MJS-10. If no packets are shown the sender has not sent any weather packets the latest 10 day(s).
| Time | Temp. | Humidity | Pressure | Rain* | Wind** | Luminosity | Snow |
|---|---|---|---|---|---|---|---|
| 1788325185 | 16.11° C | 64% | 1021.5 hPa | - | - | - | - |
| 1788324285 | 16.11° C | 64% | 1021.5 hPa | - | - | - | - |
| 1788323385 | 16.67° C | 64% | 1021.6 hPa | - | - | - | - |
| 1788322487 | 16.67° C | 64% | 1021.6 hPa | - | - | - | - |
| 1788301784 | 18.89° C | 63% | 1022 hPa | - | - | - | - |
| 1788300885 | 18.89° C | 62% | 1022.1 hPa | - | - | - | - |
| 1788299985 | 19.44° C | 62% | 1022.1 hPa | - | - | - | - |
| 1788298185 | 19.44° C | 61% | 1021.9 hPa | - | - | - | - |
| 1788297285 | 19.44° C | 62% | 1021.9 hPa | - | - | - | - |
| 1788296385 | 19.44° C | 61% | 1021.9 hPa | - | - | - | - |
| 1788294584 | 20° C | 61% | 1021.9 hPa | - | - | - | - |
| 1788293685 | 20° C | 58% | 1021.8 hPa | - | - | - | - |
| 1788292784 | 20° C | 60% | 1021.8 hPa | - | - | - | - |
| 1788290084 | 20.56° C | 56% | 1021.6 hPa | - | - | - | - |
| 1788287384 | 21.11° C | 52% | 1020.9 hPa | - | - | - | - |
| 1788286484 | 21.11° C | 53% | 1020.8 hPa | - | - | - | - |
| 1788283783 | 22.22° C | 53% | 1020.6 hPa | - | - | - | - |
| 1788282883 | 22.22° C | 52% | 1020.5 hPa | - | - | - | - |
| 1788281983 | 22.78° C | 48% | 1020.5 hPa | - | - | - | - |
| 1788280183 | 23.33° C | 46% | 1020.6 hPa | - | - | - | - |
| 1788279285 | 23.33° C | 44% | 1020.6 hPa | - | - | - | - |
| 1788278385 | 23.33° C | 43% | 1020.6 hPa | - | - | - | - |
| 1788277485 | 23.33° C | 44% | 1020.6 hPa | - | - | - | - |
| 1788276584 | 23.89° C | 44% | 1020.4 hPa | - | - | - | - |
| 1788275684 | 23.33° C | 44% | 1020.5 hPa | - | - | - | - |
* Rain since midnight (hover to see other rain measurements)
** Current wind speed in m/s (hover to see current wind gust speed)